Track LAPAN A2 (IO-86) now! 10-day predictions LAPAN A2 (IO-86) is classified as:
1 40931U 26199.45381863 .00000000 00000-0 77536-4 0 07 2 40931 6.0006 322.6653 0012733 338.8432 273.6875 14.79294310 03